Location: Holkham
(52.9500°N, 0.8167°E)
Time: 05:01:26
(UTC+00:00)

Cosmos 158 Rocket - Pass Details

Date: 19 May 2025
Orbit: 694 x 787 km, 74.0° (Epoch: 12 June)

Event Time Altitude Azimuth Distance (km) Brightness Sun altitude
Rises 20:31:49 0° 184° (S) 3,234 6.9 -5.1°
Reaches altitude 10° 20:34:14 10° 178° (S) 2,321 6.1 -5.4°
Maximum altitude 20:39:16 46° 106° (ESE) 1,048 4.4 -5.9°
Drops below altitude 10° 20:44:23 10° 35° (NE) 2,360 6.7 -6.4°
Sets 20:46:52 0° 30° (NNE) 3,293 7.5 -6.7°
